Location: Unspecified
(0.0000°N, 0.0000°E)
Time: 19:01:04
(UTC+00:00)

Vanguard 2 Rocket - Pass Details

Date: 25 January 2020
Orbit: 554 x 3327 km, 32.9° (Epoch: 20 February)

Event Time Altitude Azimuth Distance (km) Brightness Sun altitude
Rises 00:47:23 0° 237° (WSW) 4,254 - -69.0°
Reaches altitude 10° 00:50:54 10° 238° (WSW) 2,882 - -68.6°
Maximum altitude 00:57:19 80° 325° (NW) 747 - -67.9°
Drops below altitude 10° 01:01:33 10° 51° (NE) 1,932 - -67.3°
Sets 01:03:31 0° 53° (NE) 2,748 - -67.1°
